Regional Weather Roundup
Issued by NWS

Home | Current Version | Previous Version | Graphics & Text | Print | Product List | Glossary On
Versions: 1 2 3 4 5 6 7 8 9 10 11 12 13 14 15 16 17 18 19 20 21 22 23 24 25 26 27 28 29 30 31 32 33 34 35 36 37 38 39 40 41 42 43 44 45 46 47 48 49 50
543
ASUS45 KBOU 252207
RWRCO

WEATHER ROUNDUP FOR COLORADO
NATIONAL WEATHER SERVICE DENVER/BOULDER CO
400 PM MDT WED MAY 25 2016

NOTE: "FAIR" INDICATES FEW OR NO CLOUDS BELOW 12000 FEET WITH NO
SIGNIFICANT WEATHER AND/OR OBSTRUCTIONS TO VISIBILITY.

COZ001>005-013-030-031-252300-
...NORTHWEST COLORADO...

CITY           SKY/WX    TMP DP  RH WIND       PRES   REMARKS
CRAIG          FAIR      65  23  20 W20G26    30.01F
HAYDEN         FAIR      64  23  20 W17G24    30.02F
MEEKER         FAIR      66  18  15 SW8       30.02F
MOUNT WERNER   NOT AVBL
STEAMBOAT SPGS FAIR      63  23  21 W12       30.03F
WALDEN         FAIR      59  21  23 W17G29    30.09F
$$

COZ006>008-011-252300-
...WEST CENTRAL VALLEYS...

CITY           SKY/WX    TMP DP  RH WIND       PRES   REMARKS
GRAND JUNCTION FAIR      73  18  12 VRB3      29.96F
MONTROSE       FAIR      74   8   8 SW18G29   30.01F
EAGLE          MOSUNNY   66  16  14 W12G29    30.05S
RIFLE          FAIR      71  22  15 W17G23    29.98F
DELTA          FAIR      79   7   6 SW18G24   29.98F
NUCLA          FAIR      72  10   9 SW15G26   30.07F
$$

COZ017>023-064>068-252300-
...SOUTHWEST COLORADO...

CITY           SKY/WX    TMP DP  RH WIND       PRES   REMARKS
DURANGO        FAIR      68   8   9 SW7       30.09F
CORTEZ         FAIR      72  13  10 SW8       30.04F
PAGOSA SPRINGS FAIR      65  -2   7 SW13G23   30.15F
TELLURIDE      FAIR      57   3  11 W9G24     30.20S
WOLF CREEK PAS FAIR      39  10  30 SW24G37   30.36F
$$

COZ009-010-012-014-032>034-037-058>063-252300-
...CENTRAL COLORADO...

CITY           SKY/WX    TMP DP  RH WIND       PRES   REMARKS
ASPEN          FAIR      62  14  15 W9G22     30.09F
BUENA VISTA    FAIR      65   1   8 SW9G23    30.07F
COPPER MTN     NOT AVBL
BERTHOUD PASS  FAIR      36  28  75 W18G35    30.30S
COTTONWOOD PAS FAIR      61 -15   4 SW18G25   30.18F
GUNNISON       FAIR      64   9  11 W16G23    30.12R
KREMMLING      FAIR      68  10  10 SW15G28   30.06F
LEADVILLE      FAIR      53  -2  10 W16G31    30.18F
MONARCH PASS   FAIR      43  10  26 W14G30    30.39S
SALIDA         FAIR      71   7   8 W13G22    30.11F
SUNLIGHT       CLOUDY    45  21  39 CALM      30.27S
WILKERSON PASS FAIR      55   1  11 SW5G16    30.28S
$$

COZ069>075-252300-
...SAN LUIS VALLEY/SANGRE DE CRISTO MOUNTAINS...

CITY           SKY/WX    TMP DP  RH WIND       PRES   REMARKS
ALAMOSA        FAIR      69   4   7 W17G25    30.09F
LA VETA PASS   FAIR      59   9  13 S8G30     30.23S
SAGUACHE       FAIR      68   3   8 W15G26    30.07F
$$

COZ035-036-038>040-252300-
...NORTHERN COLORADO FRONT RANGE...

CITY           SKY/WX    TMP DP  RH WIND       PRES   REMARKS
DENVER INTL AP PTSUNNY   70  44  39 NE17G23   29.94F
DMNS CITY PARK   N/A     70  37  29 E13       29.92F
AURORA         PTSUNNY   72  39  30 E16       29.94F
FRONT RANGE AP PTSUNNY   70  37  30 E14G20    29.95F
ERIE MUNI ARPT FAIR      71  40  32 E10       29.92F
BOULDER MUN AP FAIR      72  37  28 E6        29.93F
CENTENNIAL     PTSUNNY   70  35  27 E10       29.94F
BROOMFIELD     PTSUNNY   72  39  30 E7        29.96F
FORT COLLINS   FAIR      72  41  33 S5        29.92F
LONGMONT       FAIR      76  37  24 S5        29.94F
$$

COZ041-046-047-076>085-087-088-252300-
...PIKES PEAK/PALMER DIVIDE AND SOUTHERN FOOTHILLS...

CITY           SKY/WX    TMP DP  RH WIND       PRES   REMARKS
COLO. SPRINGS  PTSUNNY   76   9   7 S25G37    29.96F
A. F. ACADEMY  PTSUNNY   72  10   9 N3        29.96F
SCHRIEVER AFB  NOT AVBL
ELLICOTT       FAIR     N/A N/A N/A S18G24    29.96F
FALCON         FAIR      69  10  10 S16G31    30.01F
FORT CARSON    FAIR      76  14   9 SW14G28   29.94F
LIMON          PTSUNNY   73  39  29 SE10      29.95F
MONUMENT HILL  FAIR      64  14  14 SW10G16   30.02F
TRINIDAD       FAIR      78  11   8 SE9G24    29.96F
$$

COZ042>045-048>051-090-091-252300-
...NORTHEAST COLORADO...

CITY           SKY/WX    TMP DP  RH WIND       PRES   REMARKS
GREELEY ARPT   FAIR      75  34  22 S9        29.92F
AKRON          FAIR      72  43  35 SE8       29.94F
BURLINGTON     FAIR      77  44  30 S8        29.92F
WRAY           FAIR      75  48  38 SE6       29.89F
STERLING       FAIR      75  45  33 SW8       29.92R
HOLYOKE        FAIR      79  50  36 SE9       29.90F
FORT MORGAN    FAIR      74  37  25 S9        29.94F
$$

COZ086-089-092>099-252300-
...SOUTHEAST COLORADO...

CITY           SKY/WX    TMP DP  RH WIND       PRES   REMARKS
PUEBLO         FAIR      82  22  11 SE9       29.89F
LA JUNTA       FAIR      83  21  10 CALM      29.89F
LAMAR          FAIR      85  32  15 NE10      29.87F
SPRINGFIELD      N/A     82  19   9 VRB7      29.92F
$$




USA.gov is the U.S. government's official web portal to all federal, state and local government web resources and services.